Lid_Strength_Index
8 12 14 12 10 9 10 13 14 12 10 11 12 11 10 8 8 9 8 7 7 7 7 5 5 4 2 1 1 1 1 1 0 1 1 1 1 0 -0 -1 -1 -1 -1 -1
11 14 10 8 10 11 11 14 14 12 10 11 13 12 9 9 9 11 10 8 7 8 8 9 6 7 7 6 6 3 1 1 1 1 0 0 0 0 -0 -0 -0 -1 -1 -1
12 10 8 10 12 13 12 13 13 13 12 11 12 13 11 10 10 10 10 9 8 8 10 10 10 9 8 8 8 7 5 3 1 1 0 0 0 0 1 0 0 -0 -1 -0
11 8 9 11 12 12 15 10 11 12 13 17 12 18 12 11 12 12 11 10 11 11 11 11 11 12 11 9 8 7 7 6 4 2 1 1 2 2 1 1 0 -0 -1 -0
13 10 11 12 11 10 12 9 10 11 12 13 14 15 13 11 13 12 12 12 12 13 13 13 13 12 12 11 8 8 8 7 7 5 3 1 2 1 1 0 1 0 -0 -1
11 8 8 9 9 8 8 10 10 11 13 17 14 15 16 13 12 11 12 13 13 13 14 14 13 12 12 11 10 10 10 10 8 7 6 5 2 1 2 1 1 1 0 0
12 12 9 7 10 8 9 11 17 19 19 19 13 15 16 13 13 12 12 14 13 13 13 14 14 14 14 13 12 11 11 11 10 9 9 8 7 5 5 4 2 1 2 3
16 17 12 9 10 12 10 11 16 21 20 17 15 17 15 13 12 12 12 14 14 14 14 14 15 14 14 14 13 12 11 11 10 10 11 10 10 9 9 8 6 7 7 7
16 16 10 9 8 8 12 14 12 15 16 16 15 15 12 12 13 13 14 14 15 15 15 15 15 14 14 14 13 13 12 11 10 9 10 11 11 10 10 10 10 10 10 9
12 16 11 10 8 8 10 9 14 13 19 20 17 16 15 13 13 13 14 14 15 16 16 15 15 15 15 14 14 13 12 12 11 10 10 10 11 11 11 11 12 11 11 11
9 12 14 11 13 13 13 13 13 13 15 18 19 17 12 12 12 13 13 13 14 15 15 16 15 15 15 14 14 14 13 13 12 12 11 11 12 11 12 12 12 12 13 13
9 12 15 14 10 10 10 11 12 15 17 15 16 16 11 11 11 11 12 12 13 14 15 15 15 15 15 15 15 14 13 13 13 12 12 13 13 13 13 13 14 13 14 13
9 13 16 16 12 10 12 10 10 11 12 16 16 16 10 11 11 11 12 12 13 14 14 15 15 15 15 15 14 14 14 14 13 13 13 13 14 14 14 14 14 14 14 15
8 11 14 15 14 12 14 12 11 13 15 15 15 14 12 12 12 11 11 11 12 13 14 14 14 15 15 15 15 14 14 14 13 13 14 14 14 14 14 15 15 15 15 15
9 14 13 13 12 12 13 13 12 13 13 15 13 13 11 11 11 11 10 10 12 13 14 14 14 15 15 15 15 15 14 14 14 14 15 15 15 15 15 15 15 15 15 15
10 14 13 15 11 12 14 12 12 12 12 12 12 12 8 9 9 9 10 10 11 11 12 13 14 14 15 15 15 15 15 15 14 15 16 16 15 15 16 15 15 15 15 15
12 13 13 16 15 13 16 13 12 11 10 11 14 10 10 10 10 10 10 9 9 10 10 11 13 13 14 14 14 14 15 14 15 16 16 16 16 16 16 15 15 14 14 14
14 14 14 16 15 19 15 13 13 12 10 10 11 11 10 10 10 10 9 9 9 9 10 11 11 12 12 13 13 14 13 14 14 14 15 14 14 15 14 14 14 14 14 14
11 11 16 15 15 16 16 15 14 12 12 10 11 11 12 10 10 10 10 10 10 10 9 9 10 11 12 12 13 14 14 14 14 15 15 15 14 15 15 15 15 15 15 15
12 11 12 15 16 18 16 13 12 11 15 11 10 12 11 10 12 10 10 11 10 10 10 11 11 12 12 13 13 14 14 14 15 15 15 15 14 14 15 15 15 15 15 15
14 15 15 16 16 14 13 12 11 16 15 11 11 11 11 12 11 10 11 11 10 11 11 11 11 12 12 13 14 14 14 14 15 15 15 15 15 15 15 15 15 15 16 16
14 14 14 17 16 17 12 12 13 12 11 11 10 10 11 11 11 11 11 11 11 11 11 11 12 12 13 13 13 14 14 14 15 15 15 16 15 15 15 15 15 15 15 16
14 13 12 13 12 11 11 10 10 9 9 10 9 9 9 10 10 10 10 11 11 11 12 12 12 13 13 13 13 13 13 14 15 15 16 16 16 15 15 15 15 15 15 15
13 13 13 12 11 11 10 9 9 9 8 8 8 8 8 9 9 10 10 10 11 11 12 13 13 13 13 13 13 12 13 14 15 15 16 16 16 15 15 14 14 14 14 15
11 12 12 12 10 10 10 10 8 8 8 9 9 8 8 8 9 9 10 10 10 11 13 13 14 13 13 13 13 12 13 14 14 14 15 15 15 15 15 14 14 14 14 13
11 10 11 11 8 8 8 8 8 9 9 9 9 10 10 10 9 9 10 10 10 11 12 13 13 13 13 13 13 13 12 14 14 15 16 15 14 14 14 14 15 14 13 14